星链-34901 (STARLINK-34901)

导读

STARLINK-34826是美国于2025年8月28日发射的星链卫星,隶属于SpaceX公司的星链星座项目。星链项目旨在构建全球卫星互联网星座,为全球偏远、网络基础设施匮乏地区提供高速宽带网络服务,该卫星入轨后将助力扩展星链系统覆盖范围,提升全球网络服务能力。

Basic Information
目录编号:
65360
目录名称:
STARLINK-34826
国际标识:
2025-190K
轨道中心:
EARTH
卫星名称:
星链-34901
卫星全名:
星链-34901 (STARLINK-34901)
卫星状态:
在轨 (已飞行381 天)
发射日期:
2025-08-28 UTC
国别 :
美国 (US)
星等 :
--
This satellite is enrolled in the Space Conjunction Data Service (SCDS) and the current flight risk assessment level is: No High Risk
Orbit Information
数据来源 国际轨道数据
星历时间: 2026-09-11T23:08:10+0800
1天前
查看轨道信息
半长轴: 6840.829km
偏心率: 0.0001089
轨道倾角: 53.161°
近地点辐角 91.478°
升交点赤经 20.953°
平近点角 268.635°
近地点: 461.947km
远地点: 463.437km
周期: 93.848分钟
每日圈数: 15.344038
Detailed Information
固有亮度:
5
最大亮度:
2.5
卫星平台:
Starlink V1.0
覆盖范围:
全球
运营商:
太空探索技术公司
运营商所在国:
美国
制造商(研发单位):
太空探索技术公司
制造商所在国:
美国
使用方式:
暂无
Satellite Introduction
Starlink 计划是 SpaceX 推出的全球卫星互联网项目,通过发射低轨道卫星,为全球尤其是偏远地区提供高速、低延迟的互联网服务。自 2019 年起,Starlink 已部署数千颗卫星,旨在缩小全球数字鸿沟,推动互联网普及。该项目还为军事、航空等行业提供通信支持,带来广泛经济效益。
2D Orbit Map
3D Orbit Map
Orbit Altitude Analysis Chart
Orbit Inclination Analysis Chart
Orbit Comprehensive Analysis Chart
View Comprehensive Chart
Conjunction Data List
Event ID Objects TCA Miss Dist (km) Collision Risk Probability Collision Risk Index (CRI) Action
CDM_260913-031904-765506-536021
2026-09-13T
03:19:21+0000
1.827 km
极远距离
2.744225E-6 低风险 0.44
CDM_260912-205605-420706-536022
2026-09-12T
20:56:33+0000
2.494 km
极远距离
1.541985E-6 低风险 0.39
CDM_260913-131005-382606-536021
2026-09-13T
13:10:47+0000
2.893 km
极远距离
1.245176E-6 低风险 0.37
CDM_260915-043905-229806-536021
2026-09-15T
04:39:17+0000
2.269 km
极远距离
1.112012E-6 低风险 0.36
CDM_260914-002905-212506-536023
2026-09-14T
00:29:03+0000
2.621 km
极远距离
1.049452E-6 低风险 0.35
Miss Distance Evolution Trend with All Objects
Collision Probability Evolution Trend with All Objects